COSMOS 2251 DEB, 33839

Orbit data source: Space-Track

COSMOS 2251 DEB, 33839 is space debris in LEO originally from a launch on Wed, 16 Jun 1993 UTC launched from the Plesetsk Missile And Space Complex (PKMTR). The debris from Iridium 33, an American commercial communications satellite, has been tracked extensively since its accidental collision with the defunct Russian satellite Cosmos 2251 in 2009. This event, occurring at high speed in low Earth orbit (LEO), generated thousands of pieces of space debris, significantly increasing the risk of further collisions. The Iridium 33 debris cloud has impacted space traffic management and orbital debris mitigation strategies, making it a subject of ongoing study in space situational awareness.

Loading next visibility...
Identifier
33839, 1993-036CG
Orbit
LEO
Country
Flag of CISCIS
Related business
Manufacturer
Unknown
Mission
Spacecraft
Bus & Motor
Unknown
Mass
Unknown
Launch date (UTC)
1993-06-16 (33 years ago)
Launch vehicle
Unknown
Launch site
Plesetsk Missile And Space Complex (PKMTR)
Object type
Payload
Rocket body
Debris
Shape & HBR
Unknown shape, 0.2 m
Radar Cross Section
Small (<0.1 m²)

Expand to show TLE details & history
Last TLE update: 16 hours ago

TLE from 16 hours ago
0 COSMOS 2251 DEB
1 33839U 93036CG  26034.56200527  .00001722  00000-0  31339-3 0  9993
2 33839  74.0396 104.9694 0084634 205.2590 222.3432 14.64633060903539
Epoch: 2026-02-03T13:29Z
TLE epoch observation values (Epoch: 2026-02-03T13:29:17.255Z)
Latitude
62.32027°
Longitude
161.74661°
Altitude
732.965 km
Speed
7.471 km/s
True Right ascension
09h 11m 14s
True Declination
62° 10' 41"
Sunlit
Object was in full shadow at epoch
Visualization orbit readout
Latitude
Unknown
Longitude
Unknown
Altitude
Unknown
Speed
Unknown
Apparent Right ascension
Unknown
Apparent Declination
Unknown
Sunlit
N/A
Visualization observer readout
Local Sidereal Time
07:45:38
Azimuth
Unknown
Elevation
Unknown
Doppler factor
Unknown
Orbital elements
Apogee altitude
735.546 km
Perigee altitude
616.145 km
Semi-major axis
7,053.983 km
Eccentricity
0.00846
Inclination
74.0396°
RAAN
104.9694°
Arg. of periapsis
205.259°
True anomaly
221.69503°
Mean anomaly
222.3432°
Eccentric anomaly
222.01861°
Mean motion
3.66346 °/min
Orbital period
98.27 mins
BSTAR
0.00031339
Loading maneuver chart data...
Computing Atmospheric mass density...

Documentation

Showing up to 5 results
|